Probability
0 0 0 0 0 0 0 0 0 0 0 0 0 0 0 0 0 0 0 0 0 0 0 0 0 0 0 0 0 0 0 0 0 0 0 0 0 0 0 0 0 0 0
0 0 0 0 0 0 0 0 0 0 0 0 0 0 0 0 0 0 0 0 0 0 0 0 0 0 0 0 0 0 0 0 0 0 0 0 0 0 0 0 0 0 0
0 0 0 0 0 0 0 0 0 0 0 0 0 0 0 0 0 0 0 0 0 0 0 0 0 0 0 0 0 0 0 0 0 0 0 0 0 0 0 0 0 0 0
0 0 0 0 0 0 0 0 0 0 0 0 0 0 0 0 0 0 0 0 0 0 0 0 0 0 0 0 0 0 0 0 0 0 0 0 0 0 0 0 0 0 0
0 0 0 0 0 0 0 0 0 0 0 0 0 0 0 0 0 0 0 0 0 0 0 0 0 0 0 0 0 0 0 0 0 0 0 0 0 0 0 0 0 0 0
0 0 0 0 0 0 0 0 0 0 0 0 0 0 0 0 0 0 0 0 0 0 0 0 0 0 0 0 0 0 0 0 0 0 0 0 0 0 0 0 0 0 0
0 0 0 0 0 0 0 0 0 0 0 0 0 0 0 0 0 0 0 0 0 0 0 0 0 0 0 0 0 0 0 0 0 0 0 0 0 0 0 0 0 0 0
0 0 0 0 0 0 0 0 0 0 0 0 0 0 0 0 0 0 0 0 0 0 0 0 0 0 0 0 0 0 0 0 0 0 0 0 0 0 0 0 0 0 0
0 0 0 0 0 0 0 0 0 0 0 0 0 0 0 0 0 0 0 0 0 0 0 0 0 0 0 0 0 0 0 0 0 0 0 0 0 0 0 0 0 0 0
0 0 0 0 0 0 0 0 0 0 0 0 0 0 0 0 0 0 0 0 0 0 0 0 0 0 0 0 0 0 0 0 0 0 0 0 0 0 0 0 0 0 0
0 0 0 0 0 0 0 0 0 0 0 0 0 0 0 0 0 0 0 0 0 0 0 0 0 0 0 0 0 0 0 0 0 0 0 0 0 0 0 0 0 0 0
0 0 0 0 0 0 0 0 0 0 0 0 0 0 0 0 0 0 0 0 0 0 0 0 0 0 0 0 0 0 0 0 0 0 0 0 0 0 0 0 0 0 0
0 0 0 0 0 0 0 0 0 0 0 0 0 0 0 0 0 0 0 0 0 0 0 0 0 0 0 0 0 0 0 0 0 0 0 0 0 0 0 0 0 0 0
0 0 0 0 0 0 0 0 0 0 0 0 0 0 0 0 0 0 0 0 0 0 0 0 0 0 0 0 0 0 0 0 0 0 0 0 0 0 0 0 0 0 0
0 0 0 0 0 0 0 0 0 0 0 0 0 0 0 0 0 0 0 0 0 0 0 0 0 0 0 0 0 0 0 0 0 0 0 0 0 0 0 0 0 0 0
0 0 0 0 0 0 0 0 0 0 0 0 0 0 0 0 0 0 0 0 0 0 0 0 0 0 0 0 0 0 0 0 0 0 0 0 0 0 0 0 0 0 0
0 0 0 0 0 0 0 0 0 0 0 0 0 0 0 0 0 0 0 0 0 0 0 0 0 0 0 0 0 0 0 0 0 0 0 0 0 0 0 0 0 0 0
0 0 0 0 0 0 0 0 0 0 0 0 0 0 0 0 0 0 0 0 0 0 0 0 0 0 0 0 0 0 0 0 0 0 0 0 0 0 0 0 0 0 0
0 0 0 0 0 0 0 0 0 0 0 0 0 0 0 0 0 0 0 0 0 0 0 0 0 0 0 0 0 0 0 0 0 0 0 0 0 0 0 0 0 0 0
0 0 0 0 0 0 0 0 0 0 0 0 0 0 0 0 0 0 0 0 0 0 0 0 0 0 0 0 0 0 0 0 0 0 0 0 0 0 0 0 0 0 0
0 0 0 0 0 0 0 0 0 0 0 0 0 0 0 0 0 0 0 0 0 0 0 0 0 0 0 0 0 0 0 0 0 0 0 0 0 0 0 0 0 0 0
0 0 0 0 0 0 0 0 0 0 0 0 0 0 0 0 0 0 0 0 0 0 0 0 0 0 0 0 0 0 0 0 0 0 0 0 0 0 0 0 0 0 0
0 0 0 0 0 0 0 0 0 0 0 0 0 0 0 0 0 0 0 0 0 0 0 0 0 0 0 0 0 0 0 0 0 0 0 0 0 0 0 0 0 0 0
0 0 0 0 0 0 0 0 0 0 0 0 0 0 0 0 0 0 0 0 0 0 0 0 0 0 0 0 0 0 0 0 0 0 0 0 0 0 0 0 0 0 0
0 0 0 0 0 0 0 0 0 0 0 0 0 0 0 0 0 0 0 0 0 0 0 0 0 0 0 0 0 0 0 0 0 0 0 0 0 0 0 0 0 0 0
0 0 0 0 0 0 0 0 0 0 0 0 0 0 0 0 0 0 0 0 0 0 0 0 0 0 0 0 0 0 0 0 0 0 0 0 0 0 0 0 0 0 0
Wind_Speed
4 4 9 11 12 11 12 12 12 13 13 14 14 15 15 15 16 16 16 16 17 17 18 18 18 19 19 19 19 19 19 19 19 19 19 19 19 19 19 18 16 12 20
7 6 10 11 12 12 12 11 12 12 13 13 14 14 15 15 15 16 15 15 16 17 17 17 17 18 18 18 18 18 18 18 18 18 17 15 17 18 18 18 17 12 18
9 6 8 11 12 12 12 11 12 12 12 13 14 14 14 15 15 15 15 15 15 16 16 16 17 17 17 17 17 17 17 17 17 16 14 7 10 17 17 17 17 17 17
9 7 8 11 12 12 12 12 12 12 12 12 13 14 14 14 14 14 14 14 14 15 16 16 16 16 16 16 16 16 17 16 16 14 8 6 7 15 17 17 17 17 17
7 6 8 11 12 12 12 12 12 12 12 12 13 13 14 14 14 14 14 13 14 14 15 15 15 15 15 15 15 16 16 16 15 11 6 6 6 14 16 16 16 16 16
7 6 8 12 12 13 12 12 12 12 11 12 12 12 13 13 13 13 13 13 13 13 14 14 14 14 14 14 14 15 15 14 11 6 6 6 5 13 15 15 14 14 14
8 6 7 11 11 12 12 12 11 12 12 12 12 12 12 12 12 12 12 12 12 12 12 13 13 13 13 13 13 13 13 13 7 6 5 5 7 13 13 13 13 13 13
9 7 6 10 10 10 10 10 10 11 11 11 11 11 12 11 11 11 11 11 11 11 12 12 12 12 12 12 12 12 11 9 7 6 5 4 9 11 12 12 12 12 12
7 6 5 6 7 9 9 9 9 9 10 10 10 10 10 10 10 10 9 10 10 11 11 11 11 11 11 11 11 11 10 10 6 4 4 3 8 10 10 10 10 10 10
7 6 5 5 5 5 6 8 9 9 9 9 9 9 9 9 9 9 7 8 9 10 10 10 11 11 11 10 10 9 9 7 5 4 3 3 7 8 9 9 9 9 9
8 7 6 5 5 5 5 6 7 8 8 9 8 9 8 5 5 5 6 7 8 8 9 9 10 10 9 8 8 8 6 3 3 3 3 3 6 6 7 6 6 7 7
12 10 7 7 6 5 4 4 4 4 5 5 4 5 4 4 3 4 6 7 7 6 7 8 9 8 6 3 4 5 2 3 2 2 3 4 4 4 5 4 4 4 4
12 11 9 8 7 6 4 4 3 2 3 4 5 5 4 3 3 3 2 3 3 4 3 4 5 3 3 2 2 2 2 2 1 1 3 5 3 2 2 2 2 2 2
12 13 11 9 8 7 5 4 4 3 3 3 4 5 4 3 3 2 2 2 2 1 2 2 2 2 2 2 2 1 1 0 0 1 2 5 5 4 3 3 3 3 3
13 13 12 11 10 8 7 5 5 5 4 4 4 4 5 4 4 3 2 2 2 2 2 2 1 1 1 1 1 1 1 1 1 1 2 5 6 6 6 6 6 6 6
13 13 12 13 12 10 8 7 6 6 5 4 4 5 6 5 4 4 3 3 3 2 2 2 2 1 1 0 1 1 1 2 2 2 2 3 6 6 7 8 8 8 8
12 12 13 13 12 11 10 9 6 6 6 5 5 6 6 6 5 5 4 4 3 3 3 2 2 1 1 1 2 2 2 2 3 3 3 3 3 5 7 9 9 10 10
10 11 12 10 12 12 10 9 6 6 6 6 5 5 7 7 6 5 4 4 4 3 3 3 2 2 2 2 2 2 2 3 4 4 3 3 3 3 5 8 9 10 11
11 11 12 12 12 13 11 8 7 6 7 6 6 6 7 8 7 6 5 4 4 4 3 3 2 2 2 2 2 3 3 3 4 4 5 4 4 3 3 6 8 9 11
9 10 11 12 12 11 9 7 6 7 7 6 6 7 8 7 8 7 5 5 5 4 4 3 3 2 2 2 2 3 4 4 4 4 5 4 3 4 3 4 4 5 10
10 11 12 13 12 10 9 9 9 9 7 7 6 7 8 8 8 8 6 6 6 6 6 6 4 3 3 1 1 3 3 4 4 4 3 3 4 4 3 4 3 3 4
13 14 13 14 13 13 11 9 6 5 5 6 6 7 8 8 8 7 8 6 7 6 6 6 5 3 3 3 3 1 3 4 3 2 2 3 4 3 4 4 3 4 3
14 15 14 15 14 13 11 6 4 4 3 5 6 6 8 8 8 8 9 7 7 7 6 7 7 7 5 4 3 3 3 4 3 2 2 2 2 2 3 3 4 4 4
14 12 13 13 13 12 12 10 11 10 10 9 7 6 7 8 8 9 8 9 8 7 7 7 8 6 5 4 3 4 4 2 2 3 3 2 2 3 4 3 3 4 3
10 9 10 11 11 11 12 14 13 12 10 5 5 7 7 7 8 9 9 8 8 7 8 7 7 8 6 6 5 4 4 3 3 4 5 3 2 3 3 3 3 3 3
5 6 7 9 10 10 12 14 14 14 11 8 8 8 7 5 6 8 8 8 8 7 8 8 8 8 7 7 5 4 4 4 4 5 6 5 4 3 3 3 3 2 2
Wind_Direction
163 176 149 133 123 118 112 107 101 97 95 95 92 90 88 87 85 83 83 82 83 82 80 79 78 78 77 76 75 74 72 70 68 67 67 68 68 68 67 66 62 58 64
147 159 145 134 127 122 117 113 106 102 99 97 95 93 90 89 87 85 84 84 84 83 82 81 81 81 80 78 78 76 74 72 70 67 64 63 68 68 68 66 67 66 65
137 144 138 134 130 127 123 118 112 107 102 100 99 96 94 92 90 89 87 86 87 85 83 82 83 84 82 81 80 78 76 73 71 67 60 45 64 70 69 67 66 66 66
137 136 136 135 135 132 129 124 117 112 107 104 102 101 98 95 93 92 91 90 89 88 85 84 85 85 84 82 81 79 77 74 71 65 49 39 55 71 70 67 65 64 64
132 133 139 139 139 137 133 127 122 117 113 109 105 102 100 97 94 94 92 91 90 88 86 86 87 88 86 85 84 82 79 76 69 57 42 41 51 71 70 69 66 64 62
133 135 145 143 143 140 136 132 128 123 119 114 109 105 103 100 98 96 94 93 91 90 88 87 88 90 90 88 86 85 82 77 62 46 41 40 53 71 72 71 69 66 65
141 141 149 146 145 144 142 138 134 130 124 119 115 112 109 107 105 101 99 98 96 95 92 89 89 92 93 91 90 87 84 78 64 49 41 40 63 72 71 70 68 66 65
146 143 146 147 145 146 144 141 138 134 131 126 123 121 117 113 109 106 103 102 101 99 95 92 92 95 96 94 91 87 81 73 64 50 41 40 70 73 72 70 68 67 66
144 143 142 144 146 147 144 141 139 137 135 132 128 121 115 111 109 106 104 106 105 103 99 94 94 96 98 97 95 89 81 73 60 44 37 37 70 72 72 70 67 66 65
152 151 147 144 143 141 141 144 140 137 135 131 123 115 110 108 107 105 102 107 109 108 105 99 96 96 96 98 97 91 80 66 53 42 24 45 67 72 71 67 65 64 63
172 170 164 157 151 145 143 147 143 139 136 128 123 121 110 101 101 102 109 108 109 109 108 103 98 93 89 91 94 89 76 62 54 35 9 43 67 71 72 67 64 60 57
183 183 179 173 165 156 152 140 138 135 135 129 129 125 117 116 113 109 110 105 100 96 99 103 96 86 79 69 72 75 67 63 51 22 355 15 52 65 68 65 58 53 47
185 186 187 183 175 168 159 154 149 139 138 141 143 140 130 120 114 104 100 95 91 85 74 80 75 70 77 81 76 73 75 60 34 359 343 355 9 26 38 33 22 14 360
185 191 190 187 183 180 170 169 166 164 163 163 161 153 145 144 148 149 143 138 123 107 107 90 86 82 81 84 93 97 93 73 340 333 324 340 340 328 315 302 298 296 299
188 192 193 190 190 185 180 182 183 184 182 176 170 169 165 165 172 173 171 168 164 148 144 137 123 113 100 90 97 142 218 245 266 286 306 319 322 316 304 296 294 293 292
193 193 193 194 194 189 190 191 191 191 186 181 184 183 178 177 179 180 184 188 190 182 174 168 171 168 181 202 243 241 254 264 266 271 279 300 304 304 301 297 296 296 296
196 193 193 196 195 195 197 197 194 193 189 191 194 190 188 186 186 185 190 198 199 183 172 162 168 164 211 244 264 270 272 271 269 268 269 269 283 293 295 293 293 295 296
192 193 194 194 196 199 200 199 198 196 195 199 194 192 195 195 189 188 195 205 192 176 175 177 177 193 224 241 264 275 275 275 270 267 265 262 264 271 285 288 292 295 295
196 193 194 195 196 200 201 201 201 199 201 201 194 194 197 197 194 193 201 201 180 180 189 187 188 187 217 238 256 271 271 266 267 268 263 258 253 255 261 283 289 293 292
196 196 198 198 199 197 198 200 202 207 207 202 199 200 195 196 196 197 201 194 180 184 195 194 198 193 209 223 256 273 266 259 256 255 258 260 256 255 256 263 275 285 286
200 201 202 202 200 193 197 202 206 211 208 205 203 200 199 197 194 196 200 194 189 198 202 194 184 196 214 169 223 294 286 251 246 250 250 260 264 258 255 256 258 261 279
208 208 207 207 202 200 203 201 201 197 200 203 198 201 201 200 196 198 201 198 195 198 198 193 185 179 196 177 181 235 308 318 290 251 244 249 262 264 261 259 256 258 260
211 210 209 209 205 203 199 184 177 176 183 195 202 205 203 202 201 201 202 199 197 197 203 201 196 192 205 198 192 185 210 250 303 303 268 256 263 263 265 264 261 261 259
216 211 209 207 204 200 193 192 194 202 212 211 202 199 196 200 204 204 203 202 200 201 206 204 201 201 197 204 200 220 225 204 233 298 299 280 267 261 265 266 266 265 260
213 208 207 204 203 196 194 200 202 211 217 200 188 192 198 201 205 204 202 204 206 206 209 204 199 203 204 206 195 189 212 223 222 239 275 288 293 262 258 258 258 265 269
204 200 198 198 204 197 197 201 206 212 209 196 195 200 202 202 204 205 204 206 209 208 209 208 206 205 207 209 206 193 187 191 203 216 245 260 269 273 269 258 251 255 263